This demonstration page uses our WeatherBlox Daily Observations layout. Learn more.

Left ArrowRight Arrow

39.01783, -85.05884

Hourly Observations for March 9, 2018

Temp ( °F °C ) Dew Point ( °F °C ) Humidity (%) Winds ( mph kmh ) Pressure ( in mb ) Visibility ( mi km ) Precip ( " mm )
12:52 am 00:52 Cloudy 28 -2.2 17 -8.3 63 63 W 6 9 30.05 1018 10 16 N/A
1:52 am 01:52 Cloudy 28 -2.2 17 -8.3 63 63 WSW 6 9 30.05 1018 10 16 N/A
2:52 am 02:52 Cloudy 28 -2.2 18 -7.8 66 66 WSW 6 9 30.04 1017 10 16 N/A
3:52 am 03:52 Mostly Clear 26 -3.3 18 -7.8 71 71 SW 5 7 30.04 1017 10 16 N/A
4:52 am 04:52 Clear 25 -3.9 18 -7.8 75 75 SW 5 7 30.05 1018 10 16 N/A
5:52 am 05:52 Mostly Clear 24 -4.4 18 -7.8 77 77 SW 6 9 30.06 1018 10 16 N/A
6:52 am 06:52 Mostly Clear 23 -5 18 -7.8 81 81 SW 6 9 30.06 1018 10 16 N/A
7:52 am 07:52 Partly Cloudy 26 -3.3 20 -6.7 78 78 SW 9 15 30.06 1018 10 16 N/A
8:52 am 08:52 Partly Cloudy 30 -1.1 20 -6.7 66 66 WSW 10 17 30.06 1018 10 16 N/A
9:52 am 09:52 Partly Cloudy 33 0.6 21 -6.1 61 61 WSW 10 17 30.07 1018 10 16 N/A
10:52 am 10:52 Mostly Cloudy 35 1.7 19 -7.2 52 52 W 17 28 30.06 1018 10 16 N/A
11:52 am 11:52 Cloudy 37 2.8 20 -6.7 50 50 WSW 8 13 30.04 1017 10 16 N/A
12:52 pm 12:52 Mostly Cloudy 40 4.4 19 -7.2 43 43 W 12 19 30.03 1017 10 16 N/A
1:52 pm 13:52 Mostly Cloudy 42 5.6 19 -7.2 40 40 WSW 10 17 30.00 1016 10 16 N/A
2:52 pm 14:52 Mostly Cloudy 43 6.1 19 -7.2 38 38 W 13 20 29.98 1015 10 16 N/A
3:52 pm 15:52 Cloudy 41 5 18 -7.8 39 39 W 9 15 29.97 1015 10 16 N/A
4:52 pm 16:52 Mostly Cloudy 42 5.6 19 -7.2 40 40 W 13 20 29.98 1015 10 16 N/A
5:52 pm 17:52 Mostly Cloudy 41 5 20 -6.7 43 43 W 7 11 29.98 1015 10 16 N/A
6:52 pm 18:52 Cloudy 40 4.4 20 -6.7 45 45 NW 5 7 29.99 1016 10 16 N/A
7:52 pm 19:52 Cloudy 38 3.3 20 -6.7 48 48 N N/A 30.00 1016 10 16 N/A
8:52 pm 20:52 Cloudy 39 3.9 20 -6.7 46 46 N N/A 30.00 1016 10 16 N/A
9:52 pm 21:52 Cloudy 37 2.8 23 -5 57 57 N N/A 30.00 1016 10 16 N/A
10:52 pm 22:52 Cloudy 37 2.8 23 -5 57 57 N N/A 30.01 1016 10 16 N/A
11:52 pm 23:52 Cloudy 37 2.8 22 -5.6 54 54 NE 8 13 29.98 1015 10 16 N/A

Powered by AerisWeather